Regional Weather Roundup
Issued by NWS Boston, MA

Current Version | Previous Version | Text Only | Print | Product List | Glossary Off
Versions: 1 2 3 4 5 6 7 8 9 10 11 12 13 14 15 16 17 18 19 20 21 22 23 24 25 26 27 28 29 30 31 32 33 34 35 36 37 38 39 40 41 42 43 44 45 46 47 48 49 50
328 ASUS41 KBOX 170310 RWRBOX REGIONAL WEATHER ROUNDUP NATIONAL WEATHER SERVICE TAUNTON MA 1000 PM EST TUE JAN 16 2018 NOTE: "FAIR" INDICATES FEW OR NO CLOUDS BELOW 12,000 FEET WITH NO SIGNIFICANT WEATHER AND/OR OBSTRUCTIONS TO VISIBILITY. MAZALL-170400- EASTERN MASSACHUSETTS CITY SKY/WX TMP DP RH WIND PRES REMARKS BOSTON CLOUDY 32 27 81 S7 30.44F WCI 26 BEVERLY CLOUDY 33 27 78 S6 30.43F WCI 28 LAWRENCE CLOUDY 34 24 67 CALM 30.44F BEDFORD CLOUDY 32 26 78 SE3 30.41F BLUE HILL N/A 29 26 89 SE12 30.39F WCI 19 NORWOOD FAIR 33 27 78 SE3 30.44F MARSHFIELD CLOUDY 32 28 86 S5 30.45S WCI 27 PLYMOUTH CLOUDY 33 27 78 CALM 30.45S TAUNTON CLOUDY 33 28 81 SE3 30.44S NEW BEDFORD CLOUDY 31 28 89 E3 30.44S $$ MAZALL-170400- CAPE COD AND THE ISLANDS CITY SKY/WX TMP DP RH WIND PRES REMARKS FALMOUTH CLOUDY 28 27 93 CALM 30.46 HYANNIS CLOUDY 30 27 88 CALM 30.44S CHATHAM CLOUDY 31 28 89 CALM 30.47F PROVINCETOWN CLOUDY 33 28 81 SW5 N/A WCI 29 NANTUCKET CLOUDY 33 29 85 CALM 30.46R MARTHAS VNYRD CLOUDY N/A N/A N/A CALM 30.46R $$ MAZALL-170400- CENTRAL AND WESTERN MASSACHUSETTS CITY SKY/WX TMP DP RH WIND PRES REMARKS WORCESTER CLOUDY 29 23 78 S6 30.37S WCI 23 FITCHBURG CLOUDY 32 28 85 CALM 30.41F ORANGE LGT SNOW 28 27 96 CALM 30.40S FOG SPRINGFIELD LGT SNOW 28 27 94 CALM 30.39S FOG WESTFIELD LGT SNOW 29 28 96 N3 30.40S FOG NORTH ADAMS LGT SNOW 27 26 96 CALM 30.37S VSB 1 PITTSFIELD LGT SNOW 28 25 88 CALM 30.33S VSB 3/4 $$ RIZALL-170400- RHODE ISLAND CITY SKY/WX TMP DP RH WIND PRES REMARKS PROVIDENCE CLOUDY 34 31 88 S6 30.44F WCI 29 NEWPORT CLOUDY 34 30 85 SE5 30.44S WCI 30 BLOCK ISLAND CLOUDY 36 30 79 SE10 30.42F WCI 28 SMITHFIELD LGT RAIN N/A N/A N/A CALM 30.42S WESTERLY CLOUDY 37 31 78 E7 30.42F WCI 32 $$ CTZALL-170400- CONNECTICUT CITY SKY/WX TMP DP RH WIND PRES REMARKS BRADLEY INTL CLOUDY 30 27 88 N3 30.41S HARTFORD CLOUDY 32 24 72 N3 30.41S BRIDGEPORT CLOUDY 35 31 85 NE5 30.40S WCI 31 DANBURY CLOUDY 31 25 78 CALM 30.38F GROTON CLOUDY 37 31 78 SE9 30.42F WCI 30 NEW HAVEN CLOUDY 37 30 75 E8 30.39F WCI 31 CHESTER MOCLDY 34 30 86 CALM 30.39F MERIDEN CLOUDY 31 25 78 NW3 30.40F WILLIMANTIC CLOUDY 35 29 78 SE5 30.41F WCI 31 OXFORD CLOUDY 32 28 85 SE8 30.37S WCI 25 $$ MEZ002-015-021-024-NHZ003-005-008-011-012-014-VTZ005-008-170400- NORTHERN NEW ENGLAND CITY SKY/WX TMP DP RH WIND PRES REMARKS PORTLAND ME LGT SNOW 27 25 92 CALM 30.46S FOG BANGOR ME FLURRIES 20 15 81 SE3 30.46S CONCORD NH LGT SNOW 28 25 88 CALM 30.41F FOG MANCHESTER NH LGT SNOW 29 27 92 CALM 30.41F FOG NASHUA NH MIX PCPN 29 27 92 CALM 30.42F PORTSMOUTH NH LGT SNOW 29 26 90 N3 30.42F JAFFREY NH LGT SNOW 29 27 92 CALM 30.36S FOG KEENE NH LGT SNOW 27 25 92 CALM 30.40S FOG BURLINGTON VT LGT SNOW 22 19 89 CALM 30.39S FOG MT. WASHINGTON SNOW 7 7 100 W35 N/A VSB 1/16WCI -18 $$ NYZ052-076-170400- EASTERN NEW YORK CITY SKY/WX TMP DP RH WIND PRES REMARKS ALBANY LGT SNOW 28 25 88 N3 30.40S VSB 1 NEW YORK CITY MOCLDY 33 29 85 NE6 30.38F WCI 28 $$ ANZALL-170400- MARINE OBSERVATIONS STATION/POSITION TIME TEMP WIND PRES VSBY WAVE AIR SEA DIR/SP/G HT/PER (UTC) (F) (DEG/KT/KT) (MB) (MI) (FT/S) BOSTON BUOY 0250 35 41 170/ 8/ 10 1030.4F 5/10 BUZZARDS BAY 0200 35 130/ 11/ 12 1031.2F NANTUCKET SOUND 0250 33 34 CALM 1031.4F 1/ 5 MASS BAY-STELLWA 0204 35 40 1030.3F 7/11 ISLE OF SHOALS 0200 34 210/ 10/ 11 1030.8F S OF BLOCK IS 0243 42 N/A 4/10 $$ ......................KEY......................... SKY/WX - SKY CONDITION/PRESENT WEATHER TMP - TEMPERATURE IN FAHRENHEIT DWPT - DEWPOINT IN FAHRENHEIT RH - RELATIVE HUMIDITY IN PERCENT WIND - DIRECTION AND SPEED IN MPH PRES - MEAN SEA LEVEL PRESSURE IN INCHES OF HG WCI - WIND CHILL INDEX VSB - VISIBILITY IN MILES HX - HEAT INDEX TC - TEMPERATURE IN CELSIUS VRB - VARIABLE WIND DIRECTION N/A - NOT AVAILABLE

USA.gov is the U.S. government's official web portal to all federal, state and local government web resources and services.